Location: Bremen
(53.0793°N, 8.8017°E)
Time: 17:53:41
(UTC+01:00)

Transit 2A - Pass Details

Date: 30 November 2022
Orbit: 594 x 962 km, 66.7° (Epoch: 31 January)

Event Time Altitude Azimuth Distance (km) Brightness Sun altitude
Rises 19:19:35 0° 309° (NW) 3,222 10.0 -27.0°
Reaches altitude 10° 19:22:53 10° 287° (WNW) 2,370 9.4 -27.5°
Maximum altitude 19:25:53 15° 253° (WSW) 2,094 9.0 -28.0°
Drops below altitude 10° 19:29:01 10° 220° (SW) 2,497 9.1 -28.5°
Sets 19:32:40 0° 199° (SSW) 3,500 9.6 -29.0°
